Perry, IA

1:29 PM CST on January 21, 2018 (GMT -0600)
Perry Municipal

Weather History for KPRO - July, 2012

Change the Weather History Date:

Saturday, July 14, 2012

  Actual Average Record
Temperature  
Mean Temperature 80 °F -  
Max Temperature 92 °F 86 °F 99 °F (1977)
Min Temperature 67 °F 64 °F 46 °F (1950)
Cooling Degree Days 14    
Growing Degree Days 30 (Base 50)    
Moisture  
Dew Point 68 °F    
Average Humidity 73    
Maximum Humidity 88    
Minimum Humidity 47    
Precipitation  
Precipitation 0.00 in - - ()
Sea Level Pressure  
Sea Level Pressure 30.02 in    
Wind  
Wind Speed 4 mph (South)    
Max Wind Speed 12 mph    
Max Gust Speed 24 mph    
Visibility 9 miles    
Events Rain    
Averages and records for this station are not official NWS values.
T = Trace of Precipitation, MM = Missing Value Source: NWS Daily Summary

Daily Weather History Graph

Daily Weather History Graph

Search for Another Location

Airport or City:

Trip Planner

Search our weather history database for the weather conditions in past years. The results will help you decide how hot, cold, wet, or windy it might be!

Date:

Astronomy

Jul. 14, 2012 Rise Set
Actual Time 5:54 AM CDT 8:50 PM CDT
Civil Twilight 5:21 AM CDT 9:23 PM CDT
Nautical Twilight 4:39 AM CDT 10:05 PM CDT
Astronomical Twilight 3:49 AM CDT 10:54 PM CDT
Moon 2:09 AM CDT (7/14) 5:15 PM CDT (7/14)
Length of Visible Light 16h 02m
Length of Day
14h 55m
Waning Crescent, 18% of the Moon is Illuminated
Jul 14
Waning Crescent
Jul 18
New
Jul 26
First Quarter
Aug 1
Full
Aug 9
Last Quarter

Hourly Weather History & Observations

Time (CDT) Temp. Heat Index Dew Point Humidity Pressure Visibility Wind Dir Wind Speed Gust Speed Precip Events Conditions
12:15 AM 74.3 °F - 67.3 °F 79% 30.02 in 10.0 mi South 8.1 mph - N/A   Unknown
12:35 AM 73.6 °F - 65.8 °F 77% 30.01 in 10.0 mi SSW 8.1 mph - N/A   Unknown
12:55 AM 72.7 °F - 65.7 °F 79% 30.00 in 10.0 mi SSW 6.9 mph - N/A   Unknown
1:15 AM 71.2 °F - 65.5 °F 82% 30.01 in 10.0 mi SSE 4.6 mph - N/A   Unknown
1:35 AM 70.5 °F - 65.3 °F 83% 30.01 in 10.0 mi SSE 4.6 mph - N/A   Unknown
1:55 AM 69.6 °F - 65.3 °F 86% 30.01 in 7.0 mi SSE 5.8 mph - N/A   Unknown
2:15 AM 69.3 °F - 64.9 °F 86% 30.01 in 10.0 mi South 4.6 mph - N/A   Unknown
2:35 AM 68.9 °F - 64.6 °F 86% 30.01 in 7.0 mi South 5.8 mph - N/A   Unknown
2:55 AM 69.1 °F - 64.6 °F 86% 30.02 in 10.0 mi Calm Calm - N/A   Unknown
3:15 AM 68.9 °F - 64.4 °F 86% 30.02 in 10.0 mi Calm Calm - N/A   Unknown
3:35 AM 68.4 °F - 63.9 °F 85% 30.02 in 10.0 mi SSE 3.5 mph - N/A   Unknown
3:55 AM 67.6 °F - 63.7 °F 87% 30.02 in 7.0 mi South 4.6 mph - N/A   Unknown
4:15 AM 67.3 °F - 63.7 °F 88% 30.01 in 7.0 mi South 3.5 mph - N/A   Unknown
4:35 AM 67.1 °F - 63.5 °F 88% 30.01 in 5.0 mi South 3.5 mph - N/A   Mist
4:55 AM 67.3 °F - 63.5 °F 88% 30.02 in 7.0 mi South 3.5 mph - N/A   Unknown
5:15 AM 67.3 °F - 63.5 °F 88% 30.02 in 7.0 mi SSE 3.5 mph - N/A   Unknown
6:35 AM 67.1 °F - 63.5 °F 88% 30.03 in 7.0 mi Calm Calm - N/A   Unknown
6:55 AM 67.5 °F - 63.7 °F 88% 30.03 in 7.0 mi Calm Calm - N/A   Unknown
7:15 AM 68.4 °F - 64.6 °F 88% 30.04 in 7.0 mi South 3.5 mph - N/A   Unknown
7:35 AM 70.3 °F - 65.3 °F 84% 30.04 in 7.0 mi SSW 3.5 mph - N/A   Unknown
7:55 AM 72.5 °F - 66.0 °F 80% 30.04 in 10.0 mi SSW 3.5 mph - N/A   Unknown
8:15 AM 74.7 °F - 66.9 °F 77% 30.04 in 10.0 mi SW 3.5 mph - N/A   Unknown
8:35 AM 76.1 °F - 67.1 °F 74% 30.04 in 10.0 mi WSW 3.5 mph - N/A   Unknown
8:55 AM 77.0 °F - 67.1 °F 71% 30.05 in 10.0 mi WSW 3.5 mph - N/A   Unknown
9:15 AM 78.3 °F - 67.6 °F 70% 30.05 in 10.0 mi WSW 3.5 mph - N/A   Unknown
9:35 AM 79.3 °F - 67.6 °F 67% 30.05 in 10.0 mi Calm Calm - N/A   Unknown
9:55 AM 81.0 °F 83.8 °F 68.4 °F 65% 30.05 in 10.0 mi Calm Calm - N/A   Unknown
10:15 AM 82.6 °F 86.1 °F 69.3 °F 64% 30.05 in 10.0 mi Calm Calm - N/A   Unknown
10:35 AM 83.7 °F 87.2 °F 68.9 °F 61% 30.04 in 10.0 mi Calm Calm - N/A   Unknown
10:55 AM 84.7 °F 88.8 °F 69.3 °F 60% 30.04 in 10.0 mi Calm Calm - N/A   Unknown
11:15 AM 86.0 °F 90.4 °F 69.6 °F 58% 30.04 in 10.0 mi Calm Calm - N/A   Unknown
11:35 AM 87.3 °F 92.4 °F 70.3 °F 57% 30.05 in 10.0 mi Calm Calm - N/A   Unknown
11:55 AM 88.2 °F 93.3 °F 70.2 °F 55% 30.05 in 10.0 mi Calm Calm - N/A   Unknown
12:15 PM 88.2 °F 92.5 °F 69.3 °F 53% 30.04 in 10.0 mi Calm Calm - N/A   Unknown
12:35 PM 89.6 °F 96.6 °F 72.0 °F 56% 30.04 in 10.0 mi East 3.5 mph - N/A   Unknown
1:15 PM 89.8 °F 96.0 °F 71.2 °F 54% 30.04 in 10.0 mi Calm Calm - N/A   Unknown
1:35 PM 89.8 °F 96.0 °F 71.1 °F 54% 30.03 in 10.0 mi Calm Calm - N/A   Unknown
1:55 PM 90.0 °F 94.1 °F 68.5 °F 49% 30.02 in 10.0 mi Calm Calm - N/A   Unknown
2:15 PM 90.9 °F 95.3 °F 68.7 °F 48% 30.01 in 10.0 mi Calm Calm - N/A   Unknown
2:35 PM 91.4 °F 95.8 °F 68.7 °F 47% 30.01 in 10.0 mi Calm Calm - N/A   Unknown
2:55 PM 91.4 °F 96.3 °F 68.9 °F 48% 30.00 in 10.0 mi Calm Calm - N/A   Unknown
3:15 PM 92.3 °F 97.6 °F 69.3 °F 47% 30.00 in 10.0 mi Calm Calm - N/A   Unknown
3:35 PM 92.8 °F 98.6 °F 70.0 °F 47% 29.99 in 10.0 mi East 4.6 mph - N/A   Unknown
3:55 PM 89.6 °F 95.7 °F 71.1 °F 54% 29.98 in 10.0 mi Calm Calm - N/A   Unknown
4:15 PM 87.6 °F 96.2 °F 74.1 °F 64% 29.98 in 10.0 mi Calm Calm - N/A   Unknown
4:35 PM 82.9 °F 85.6 °F 67.3 °F 59% 30.00 in 10.0 mi NE 5.8 mph 24.2 mph N/A   Unknown
4:55 PM 82.6 °F 85.7 °F 68.4 °F 62% 29.99 in 10.0 mi East 6.9 mph - N/A   Unknown
5:15 PM 82.6 °F 86.8 °F 70.5 °F 67% 29.99 in 10.0 mi Calm Calm - N/A   Unknown
5:35 PM 82.0 °F 85.9 °F 70.2 °F 67% 30.02 in 10.0 mi West 9.2 mph - N/A   Unknown
5:55 PM 79.3 °F - 64.9 °F 61% 30.01 in 10.0 mi West 11.5 mph 23.0 mph N/A   Unknown
6:15 PM 77.4 °F - 68.7 °F 75% 30.01 in 10.0 mi NW 5.8 mph - N/A Rain Light Rain
6:35 PM 79.2 °F - 68.4 °F 69% 29.99 in 10.0 mi NNW 3.5 mph - N/A Rain Light Rain
6:55 PM 79.7 °F - 67.8 °F 67% 29.98 in 10.0 mi North 3.5 mph - N/A   Unknown
7:15 PM 80.1 °F 82.4 °F 67.5 °F 65% 29.97 in 10.0 mi Calm Calm - N/A   Unknown
7:35 PM 79.9 °F - 68.0 °F 67% 29.98 in 10.0 mi Calm Calm - N/A   Unknown
7:55 PM 79.2 °F - 70.5 °F 75% 29.99 in 10.0 mi Calm Calm - N/A   Unknown
8:15 PM 77.2 °F - 70.9 °F 81% 29.99 in 10.0 mi Calm Calm - N/A   Unknown
8:35 PM 75.7 °F - 70.3 °F 83% 29.99 in 10.0 mi Calm Calm - N/A   Unknown
8:55 PM 74.8 °F - 69.8 °F 84% 30.00 in 10.0 mi South 3.5 mph - N/A   Unknown
9:15 PM 74.5 °F - 69.8 °F 85% 30.00 in 10.0 mi Calm Calm - N/A   Unknown
9:35 PM 73.6 °F - 69.1 °F 86% 30.00 in 10.0 mi Calm Calm - N/A   Unknown
9:55 PM 73.0 °F - 68.9 °F 87% 30.01 in 10.0 mi Calm Calm - N/A   Unknown
10:15 PM 72.5 °F - 68.4 °F 87% 30.02 in 10.0 mi Calm Calm - N/A   Unknown
10:35 PM 72.0 °F - 68.0 °F 87% 30.02 in 10.0 mi Calm Calm - N/A   Unknown
11:15 PM 71.8 °F - 68.0 °F 88% 30.03 in 10.0 mi Calm Calm - N/A   Unknown
11:35 PM 71.4 °F - 67.8 °F 88% 30.03 in 7.0 mi Calm Calm - N/A   Unknown
11:55 PM 71.6 °F - 68.0 °F 88% 30.04 in 10.0 mi Calm Calm - N/A   Unknown